Location: Grisols
(45.0093°N, 3.1167°E)
Time: 19:23:02
(UTC+00:00)

Cosmos 921 Rocket - Pass Details

Date: 21 October 2019
Orbit: 573 x 631 km, 75.8° (Epoch: 21 November)

Event Time Altitude Azimuth Distance (km) Brightness Sun altitude
Rises 17:43:59 0° 214° (SW) 2,907 7.1 -9.7°
Reaches altitude 10° 17:46:20 10° 221° (SW) 2,001 6.4 -10.1°
Maximum altitude 17:50:36 43° 293° (WNW) 880 4.4 -10.8°
Drops below altitude 10° 17:54:51 10° 6° (N) 1,990 5.6 -11.6°
Sets 17:57:11 0° 13° (NNE) 2,890 6.3 -12.0°
